Location: Asheville, NC
(35.6000°N, 82.5500°W)
Time: 22:57:32
(UTC-04:00)

CUTE-I - Pass Details

Date: 16 February 2018
Orbit: 810 x 826 km, 98.7° (Epoch: 20 May)

Event Time Altitude Azimuth Distance (km) Brightness Sun altitude
Rises 18:59:38 0° 196° (SSW) 3,311 ? -10.1°
Reaches altitude 10° 19:02:20 10° 208° (SSW) 2,385 ? -10.6°
Maximum altitude 19:06:40 26° 264° (W) 1,552 ? -11.5°
Drops below altitude 10° 19:11:03 10° 320° (NW) 2,403 ? -12.4°
Sets 19:13:48 0° 333° (NNW) 3,341 ? -12.9°
